Location: Newark
(54.0500°N, 12.8333°E)
Time: 13:30:19
(UTC+00:00)

Tiros 1 - Visible Passes

Search period start: 23 January 2020 00:00
Search period end: 02 February 2020 00:00
Orbit: 630 x 664 km, 48.4° (Epoch: 22 January)

Date Brightness Start Highest point End Pass type
(mag) Time Alt. Az. Time Alt. Az. Time Alt. Az.
23 Jan 8.7 16:55:46 10° W 17:00:01 33° SSW 17:04:18 10° SE visible
23 Jan 9.7 18:38:48 10° WSW 18:41:15 14° SW 18:43:21 11° S visible
24 Jan 9.3 17:21:56 10° W 17:25:43 23° SSW 17:29:29 10° SSE visible
25 Jan 8.9 16:05:43 10° W 16:09:59 33° SSW 16:14:17 10° SE visible
25 Jan 9.8 17:48:37 10° WSW 17:51:15 15° SW 17:53:53 10° S visible
26 Jan 9.4 16:31:52 10° W 16:35:42 24° SSW 16:39:32 10° SSE visible
27 Jan 9.9 16:58:28 10° WSW 17:01:15 16° SW 17:04:03 10° S visible
